TimePST,TemperatureF,Dew PointF,Humidity,Sea Level PressureIn,VisibilityMPH,Wind Direction,Wind SpeedMPH,Gust SpeedMPH,PrecipitationIn,Events,Conditions,WindDirDegrees,DateUTC
12:45 AM,39.2,37.4,93,30.18,10.0,Calm,Calm,-,N/A,,Overcast,0,2013-02-21 08:45:00
12:53 AM,39.9,37.9,93,30.19,10.0,Calm,Calm,-,N/A,,Overcast,0,2013-02-21 08:53:00
1:14 AM,39.2,37.4,93,30.18,10.0,Calm,Calm,-,N/A,,Mostly Cloudy,0,2013-02-21 09:14:00
1:53 AM,39.9,37.9,93,30.20,10.0,Calm,Calm,-,N/A,,Overcast,0,2013-02-21 09:53:00
2:43 AM,39.2,37.4,93,30.20,10.0,Calm,Calm,-,N/A,,Overcast,0,2013-02-21 10:43:00
2:53 AM,39.9,37.9,93,30.21,10.0,Calm,Calm,-,N/A,,Overcast,0,2013-02-21 10:53:00
3:53 AM,39.0,37.9,96,30.22,10.0,Calm,Calm,-,N/A,,Overcast,0,2013-02-21 11:53:00
4:27 AM,39.2,37.4,93,30.22,10.0,North,3.5,-,0.00,,Overcast,10,2013-02-21 12:27:00
4:53 AM,39.9,37.9,93,30.23,10.0,Calm,Calm,-,0.00,Rain,Light Rain,0,2013-02-21 12:53:00
5:53 AM,39.0,37.9,96,30.24,10.0,Calm,Calm,-,0.00,,Mostly Cloudy,0,2013-02-21 13:53:00
6:53 AM,39.0,37.0,93,30.25,10.0,Calm,Calm,-,N/A,,Overcast,0,2013-02-21 14:53:00
7:53 AM,39.0,37.9,96,30.27,10.0,Calm,Calm,-,N/A,,Overcast,0,2013-02-21 15:53:00
8:53 AM,41.0,37.9,89,30.29,10.0,SSE,5.8,-,N/A,,Overcast,160,2013-02-21 16:53:00
9:53 AM,43.0,37.9,82,30.30,10.0,Calm,Calm,-,N/A,,Overcast,0,2013-02-21 17:53:00
10:53 AM,44.1,37.9,79,30.31,10.0,Calm,Calm,-,N/A,,Overcast,0,2013-02-21 18:53:00
11:18 AM,44.6,37.4,76,30.28,5.0,Calm,Calm,-,0.01,Rain,Light Rain,0,2013-02-21 19:18:00
11:25 AM,44.6,37.4,76,30.28,10.0,Calm,Calm,-,0.01,Rain,Light Rain,0,2013-02-21 19:25:00
11:53 AM,45.0,37.0,74,30.30,10.0,South,3.5,-,0.01,,Overcast,170,2013-02-21 19:53:00
12:53 PM,46.9,36.0,66,30.27,10.0,WSW,4.6,-,N/A,,Overcast,250,2013-02-21 20:53:00
1:12 PM,46.4,35.6,66,30.26,10.0,Variable,3.5,-,0.00,Rain,Light Rain,0,2013-02-21 21:12:00
1:33 PM,46.4,33.8,62,30.25,10.0,Calm,Calm,-,0.00,,Overcast,0,2013-02-21 21:33:00
1:53 PM,46.9,35.1,63,30.26,10.0,Variable,3.5,-,0.00,Rain,Light Rain,0,2013-02-21 21:53:00
2:53 PM,46.0,37.9,73,30.26,6.0,WSW,5.8,-,0.02,Rain,Light Rain,250,2013-02-21 22:53:00
3:53 PM,46.0,39.0,76,30.25,10.0,Calm,Calm,-,0.01,,Overcast,0,2013-02-21 23:53:00
4:53 PM,46.0,37.0,71,30.26,10.0,WSW,3.5,-,N/A,,Overcast,240,2013-02-22 00:53:00
5:53 PM,45.0,39.9,82,30.25,10.0,Calm,Calm,-,0.00,,Overcast,0,2013-02-22 01:53:00
6:09 PM,44.6,41.0,87,30.24,10.0,Calm,Calm,-,0.00,Rain,Light Rain,0,2013-02-22 02:09:00
6:25 PM,44.6,39.2,81,30.25,10.0,SSE,3.5,-,0.00,,Overcast,150,2013-02-22 02:25:00
6:53 PM,44.1,39.0,82,30.26,10.0,Calm,Calm,-,0.00,,Overcast,0,2013-02-22 02:53:00
7:53 PM,44.1,39.0,82,30.26,10.0,Calm,Calm,-,N/A,,Overcast,0,2013-02-22 03:53:00
8:53 PM,42.1,39.9,92,30.27,10.0,Calm,Calm,-,N/A,,Mostly Cloudy,0,2013-02-22 04:53:00
9:53 PM,41.0,39.0,93,30.27,8.0,Calm,Calm,-,N/A,,Overcast,0,2013-02-22 05:53:00
11:53 PM,42.1,39.0,89,30.28,10.0,South,3.5,-,N/A,,Overcast,190,2013-02-22 07:53:00